Regional Weather Roundup
Issued by NWS

Home | Current Version | Previous Version | Graphics & Text | Print | Product List | Glossary On
Versions: 1 2 3 4 5 6 7 8 9 10 11 12 13 14 15 16 17 18 19 20 21 22 23 24 25 26 27 28 29 30 31 32 33 34 35 36 37 38 39 40 41 42 43 44 45 46 47 48 49 50
000
ASUS43 KIND 242200
RWRIN

WEATHER ROUNDUP FOR INDIANA
NATIONAL WEATHER SERVICE INDIANAPOLIS IN
600 PM EDT MON JUL 24 2017

NOTE: "FAIR" INDICATES FEW OR NO CLOUDS BELOW 12,000 FEET WITH NO
SIGNIFICANT WEATHER AND/OR OBSTRUCTIONS TO VISIBILITY.

* - STATION DOES NOT REPORT WEATHER SUCH AS PRECIPITATION OR FOG.

+ - STATION NOT QUALITY CONTROLLED BY THE NATIONAL WEATHER SERVICE.
    USE DATA WITH CAUTION...ESPECIALLY DEWPOINT AND RELATIVE
    HUMIDITY OBSERVATIONS.

INZ001>003-010>013-019-020-242300-
NORTHWEST INDIANA

CITY           SKY/WX    TMP DP  RH WIND       PRES   REMARKS
GARY /AIRPORT/ PTSUNNY   72  57  60 NE7G20    30.07R
MICHIGAN CITY+ MOSUNNY   72  61  68 N9        30.06R
MONTICELLO +   MOSUNNY   75  61  61 N7        30.02R
RENSSELAER +   PTSUNNY   73  59  60 N7        30.04R

$$

LMZ046-743>745-242300-
SOUTHERN LAKE MICHIGAN

STATION/POSITION TIME  TEMP    WIND        PRES    WAVE
                       AIR SEA DIR/SP/G            HT
                 (UTC) (F)     (DEG/KT/KT) (MB)    (FT)
BURNS HARBOR     2140   69      20/  8/ 10 1018.3S
MICHIGAN CITY    2130   69      10/  8/ 11   N/A
5NW MICH CITY    2150   69 74   20/  8/ 12   N/A     4

$$

INZ004-005-014>016-021>024-242300-
NORTH CENTRAL INDIANA

CITY           SKY/WX    TMP DP  RH WIND       PRES   REMARKS
ELKHART        PTSUNNY   73  57  56 E8        30.04S
GOSHEN         SUNNY     74  55  51 NE12      30.04S
SOUTH BEND     PTSUNNY   73  58  59 NE8       30.04S

$$

INZ006>009-017-018-025>027-242300-
NORTHEAST INDIANA

CITY           SKY/WX    TMP DP  RH WIND       PRES   REMARKS
FORT WAYNE     PTSUNNY   76  58  53 N6        30.03R
KENDALLVILLE + PTSUNNY   71  57  61 NE6       30.05S

$$

INZ028-029-035-036-043>045-051>053-242300-
WEST CENTRAL INDIANA

CITY           SKY/WX    TMP DP  RH WIND       PRES   REMARKS
LAFAYETTE      PTSUNNY   76  63  64 N7        30.01R
TERRE HAUTE    SUNNY     82  66  58 N6        29.98F

$$

INZ030>032-037>040-046>048-054>057-064-065-242300-
CENTRAL INDIANA

CITY           SKY/WX    TMP DP  RH WIND       PRES   REMARKS
COLUMBUS       MOSUNNY   81  64  57 N9        29.97S
GREENWOOD *+   PTSUNNY  N/A N/A N/A N8        29.99F
INDIANAPOLIS   MOSUNNY   81  64  56 N10       29.98F
-EAGLE CREEK   SUNNY     81  63  54 N8        29.98F
KOKOMO +       MOSUNNY   78  63  59 N9        30.03R
MT COMFORT *+  MOSUNNY   79  64  61 N8        30.00F
SHELBYVILLE    SUNNY     82  65  56 N9        29.97F

$$

INZ033-034-041-042-049-050-058-059-242300-
EAST CENTRAL INDIANA

CITY           SKY/WX    TMP DP  RH WIND       PRES   REMARKS
MUNCIE         MOSUNNY   78  62  57 NE8       30.01S
RICHMOND +     MOSUNNY   77  64  65 N9        30.01S

$$

INZ060-061-067>069-081>083-085>088-242300-
SOUTHWEST INDIANA

CITY           SKY/WX    TMP DP  RH WIND       PRES   REMARKS
EVANSVILLE     MOSUNNY   90  70  51 N8        29.93F HX  95
HUNTINGBURG *+ SUNNY     86  70  58 N8        29.94F

$$

INZ062-063-066-070>080-084-089>092-242300-
SOUTH CENTRAL AND SOUTHEAST INDIANA

CITY           SKY/WX    TMP DP  RH WIND       PRES   REMARKS
BLOOMINGTON    SUNNY     84  65  52 N8        29.98S
MADISON *+     SUNNY     86  61  42 NW6       29.98S
SEYMOUR +      MOSUNNY  N/A N/A N/A N10       29.96S

$$




USA.gov is the U.S. government's official web portal to all federal, state and local government web resources and services.